When you browse on this site, cookies collect data to enhance your experience and personalize the content and advertising you see.
Visit our Privacy Policy to learn more. By continuing to use the site, you agree to this use of cookies and data.
  • In Austria
  • List of Countries
  • For 7 days
  • Water Temperature
  • Satellite Maps
  • Weather Map
  • News
  • Weather Widgets
  • user-avatar
    Login

    Hourly Weather Beja

    Today, 25 March, Monday

    Time Temperature Precipitation Wind Pressure Humidity
    00:00 +11°C° 0 mm 1 mps 743 mmHg 84%
    01:00 +11°C° 0 mm 1 mps 743 mmHg 84%
    02:00 +10°C° 0 mm 1 mps 743 mmHg 83%
    03:00 +10°C° 0 mm 1 mps 743 mmHg 84%
    04:00 +9°C° 0 mm 2 mps 742 mmHg 84%
    05:00 +9°C° 0 mm 2 mps 742 mmHg 85%
    06:00 +12°C° 0 mm 2 mps 742 mmHg 80%
    07:00 +12°C° 0 mm 3 mps 743 mmHg 74%
    08:00 +14°C° 0 mm 3 mps 743 mmHg 69%
    09:00 +17°C° 0 mm 4 mps 742 mmHg 61%
    10:00 +20°C° 0 mm 4 mps 742 mmHg 52%
    11:00 +22°C° 0 mm 4 mps 742 mmHg 44%
    12:00 +23°C° 0 mm 5 mps 742 mmHg 40%
    13:00 +23°C° 0 mm 5 mps 741 mmHg 37%
    14:00 +25°C° 0 mm 5 mps 740 mmHg 34%
    15:00 +23°C° 0 mm 5 mps 740 mmHg 40%
    16:00 +21°C° 0 mm 4 mps 740 mmHg 45%
    17:00 +20°C° 0 mm 4 mps 739 mmHg 51%
    18:00 +18°C° 0 mm 3 mps 739 mmHg 51%
    19:00 +17°C° 0 mm 3 mps 739 mmHg 51%
    20:00 +14°C° 0 mm 3 mps 740 mmHg 51%
    21:00 +13°C° 0 mm 3 mps 739 mmHg 52%
    22:00 +13°C° 0 mm 3 mps 739 mmHg 52%
    23:00 +12°C° 0 mm 3 mps 739 mmHg 53%

    Tomorrow, 26 March, Tuesday

    Time Temperature Precipitation Wind Pressure Humidity
    00:00 +12°C° 0 mm 4 mps 739 mmHg 51%
    01:00 +11°C° 0 mm 4 mps 738 mmHg 48%
    02:00 +10°C° 0 mm 5 mps 738 mmHg 46%
    03:00 +10°C° 0 mm 5 mps 738 mmHg 44%
    04:00 +10°C° 0 mm 5 mps 738 mmHg 43%
    05:00 +10°C° 0 mm 5 mps 738 mmHg 41%
    06:00 +12°C° 0 mm 5 mps 738 mmHg 42%
    07:00 +13°C° 0 mm 6 mps 738 mmHg 43%
    08:00 +14°C° 0 mm 7 mps 738 mmHg 44%
    09:00 +17°C° 0 mm 7 mps 738 mmHg 41%
    10:00 +20°C° 0 mm 6 mps 738 mmHg 39%
    11:00 +22°C° 0 mm 6 mps 738 mmHg 36%
    12:00 +23°C° 0 mm 5 mps 738 mmHg 36%
    13:00 +25°C° 0 mm 5 mps 738 mmHg 35%
    14:00 +26°C° 0 mm 5 mps 737 mmHg 35%
    15:00 +23°C° 0 mm 4 mps 737 mmHg 41%
    16:00 +22°C° 0 mm 3 mps 737 mmHg 48%
    17:00 +21°C° 0 mm 2 mps 737 mmHg 55%
    18:00 +19°C° 0 mm 2 mps 738 mmHg 58%
    19:00 +17°C° 0 mm 2 mps 738 mmHg 61%
    20:00 +15°C° 0 mm 2 mps 738 mmHg 63%
    21:00 +14°C° 0 mm 2 mps 739 mmHg 68%
    22:00 +13°C° 0 mm 2 mps 739 mmHg 72%
    23:00 +12°C° 0 mm 2 mps 739 mmHg 76%

    Day after tomorrow, 27 March, Wednesday

    Time Temperature Precipitation Wind Pressure Humidity
    00:00 +12°C° 0 mm 2 mps 740 mmHg 75%
    01:00 +10°C° 0 mm 2 mps 740 mmHg 75%
    02:00 +10°C° 0 mm 2 mps 740 mmHg 75%
    03:00 +9°C° 0 mm 3 mps 741 mmHg 71%
    04:00 +9°C° 0 mm 3 mps 741 mmHg 67%
    05:00 +9°C° 0 mm 3 mps 741 mmHg 62%
    06:00 +10°C° 0 mm 4 mps 742 mmHg 57%
    07:00 +11°C° 0 mm 4 mps 742 mmHg 52%
    08:00 +13°C° 0 mm 5 mps 743 mmHg 46%
    09:00 +15°C° 0 mm 5 mps 743 mmHg 43%
    10:00 +16°C° 0 mm 5 mps 743 mmHg 39%
    11:00 +19°C° 0 mm 5 mps 744 mmHg 35%
    12:00 +20°C° 0 mm 5 mps 743 mmHg 33%
    13:00 +21°C° 0 mm 5 mps 743 mmHg 31%
    14:00 +22°C° 0 mm 4 mps 743 mmHg 28%
    15:00 +21°C° 0 mm 4 mps 743 mmHg 34%
    16:00 +20°C° 0 mm 4 mps 743 mmHg 40%
    17:00 +18°C° 0 mm 4 mps 743 mmHg 45%
    18:00 +17°C° 0 mm 4 mps 744 mmHg 47%
    19:00 +14°C° 0 mm 3 mps 744 mmHg 49%
    20:00 +12°C° 0 mm 3 mps 745 mmHg 51%
    21:00 +10°C° 0 mm 2 mps 745 mmHg 61%
    22:00 +9°C° 0 mm 2 mps 745 mmHg 71%
    23:00 +8°C° 0 mm 2 mps 745 mmHg 81%

    28 March, Thursday

    Time Temperature Precipitation Wind Pressure Humidity
    00:00 +8°C° 0 mm 2 mps 745 mmHg 83%
    01:00 +8°C° 0 mm 1 mps 745 mmHg 85%
    02:00 +8°C° 0 mm 1 mps 745 mmHg 88%
    03:00 +8°C° 0 mm 1 mps 745 mmHg 87%
    04:00 +6°C° 0 mm 2 mps 745 mmHg 87%
    05:00 +6°C° 0 mm 2 mps 745 mmHg 87%
    06:00 +8°C° 0 mm 2 mps 746 mmHg 76%
    07:00 +10°C° 0 mm 3 mps 746 mmHg 66%
    08:00 +12°C° 0 mm 3 mps 747 mmHg 56%
    09:00 +14°C° 0 mm 3 mps 747 mmHg 49%
    10:00 +17°C° 0 mm 3 mps 747 mmHg 42%
    11:00 +19°C° 0 mm 4 mps 747 mmHg 35%
    12:00 +20°C° 0 mm 3 mps 746 mmHg 32%
    13:00 +20°C° 0 mm 3 mps 746 mmHg 30%
    14:00 +21°C° 0 mm 3 mps 745 mmHg 27%
    15:00 +20°C° 0 mm 3 mps 745 mmHg 33%
    16:00 +19°C° 0 mm 2 mps 745 mmHg 39%
    17:00 +18°C° 0 mm 2 mps 745 mmHg 45%
    18:00 +16°C° 0 mm 2 mps 745 mmHg 48%
    19:00 +14°C° 0 mm 2 mps 745 mmHg 51%
    20:00 +12°C° 0 mm 2 mps 746 mmHg 54%
    21:00 +10°C° 0 mm 2 mps 746 mmHg 60%
    22:00 +10°C° 0 mm 1 mps 745 mmHg 65%
    23:00 +9°C° 0 mm 1 mps 745 mmHg 71%

    29 March, Friday

    Time Temperature Precipitation Wind Pressure Humidity
    00:00 +9°C° 0 mm 1 mps 745 mmHg 75%
    01:00 +7°C° 0 mm 0 mps 745 mmHg 79%
    02:00 +7°C° 0 mm 0 mps 745 mmHg 83%
    03:00 +8°C° 0 mm 1 mps 745 mmHg 83%
    04:00 +8°C° 0 mm 1 mps 745 mmHg 83%
    05:00 +6°C° 0 mm 2 mps 745 mmHg 84%
    06:00 +9°C° 0 mm 2 mps 745 mmHg 73%
    07:00 +11°C° 0 mm 3 mps 745 mmHg 63%
    08:00 +13°C° 0 mm 3 mps 746 mmHg 53%
    09:00 +16°C° 0 mm 3 mps 745 mmHg 47%
    10:00 +18°C° 0 mm 4 mps 745 mmHg 42%
    11:00 +20°C° 0 mm 4 mps 745 mmHg 36%
    12:00 +20°C° 0 mm 3 mps 744 mmHg 36%
    13:00 +21°C° 0 mm 3 mps 744 mmHg 35%
    14:00 +22°C° 0 mm 3 mps 743 mmHg 34%
    15:00 +21°C° 0 mm 2 mps 743 mmHg 39%
    16:00 +20°C° 0 mm 2 mps 743 mmHg 45%
    17:00 +20°C° 0 mm 1 mps 743 mmHg 51%
    18:00 +18°C° 0 mm 2 mps 743 mmHg 54%
    19:00 +16°C° 0 mm 2 mps 743 mmHg 57%
    20:00 +15°C° 0 mm 2 mps 743 mmHg 60%
    21:00 +13°C° 0 mm 2 mps 743 mmHg 68%
    22:00 +12°C° 0 mm 1 mps 743 mmHg 77%
    23:00 +11°C° 0 mm 1 mps 743 mmHg 85%

    30 March, Saturday

    Time Temperature Precipitation Wind Pressure Humidity
    00:00 +10°C° 0 mm 1 mps 742 mmHg 87%
    01:00 +10°C° 0 mm 1 mps 742 mmHg 88%
    02:00 +9°C° 0 mm 1 mps 742 mmHg 89%
    03:00 +9°C° 0 mm 1 mps 742 mmHg 89%
    04:00 +9°C° 0 mm 1 mps 742 mmHg 89%
    05:00 +8°C° 0 mm 1 mps 742 mmHg 89%
    06:00 +9°C° 0 mm 2 mps 742 mmHg 80%
    07:00 +12°C° 0 mm 2 mps 742 mmHg 71%
    08:00 +13°C° 0 mm 3 mps 742 mmHg 62%
    09:00 +16°C° 0 mm 3 mps 742 mmHg 56%
    10:00 +18°C° 0 mm 3 mps 742 mmHg 50%
    11:00 +20°C° 0 mm 2 mps 742 mmHg 44%
    12:00 +21°C° 0 mm 2 mps 741 mmHg 44%
    13:00 +22°C° 0 mm 1 mps 741 mmHg 43%
    14:00 +23°C° 0 mm 1 mps 740 mmHg 42%
    15:00 +22°C° 0 mm 1 mps 740 mmHg 46%
    16:00 +20°C° 0 mm 2 mps 740 mmHg 51%
    17:00 +20°C° 0 mm 2 mps 740 mmHg 56%
    18:00 +18°C° 0 mm 2 mps 740 mmHg 59%
    19:00 +17°C° 0 mm 2 mps 740 mmHg 62%
    20:00 +15°C° 0 mm 2 mps 740 mmHg 65%
    21:00 +14°C° 0 mm 2 mps 740 mmHg 68%
    22:00 +13°C° 0 mm 1 mps 740 mmHg 71%
    23:00 +12°C° 0 mm 1 mps 739 mmHg 74%
    Show more